| time (UTC) | temp F | wind direction | speed MPH | gust MPH | rain 1hr in | rain 24hr in | rain mn in | humidity % | barometer mb |
| 20260504151038 | 71 | 249 | 5.0 | 11.0 | 0.00 | 0.00 | 0.00 | 54 | 1016.3 |
| 20260504141036 | 67 | 242 | 4.0 | 10.0 | 0.00 | 0.00 | 0.00 | 57 | 1016.3 |
| 20260504100215 | 49 | 231 | 1.0 | 4.0 | 0.00 | 0.00 | 0.00 | 88 | 1015.9 |
| 20260504081059 | 48 | 0.0 | 2.0 | 0.00 | 0.00 | 0.00 | 91 | 1016.0 | |
| 20260504045031 | 50 | 258 | 0.0 | 2.0 | 0.00 | 0.00 | 0.00 | 87 | 1017.6 |
| 20260504044031 | 50 | 258 | 0.0 | 2.0 | 0.00 | 0.00 | 0.00 | 88 | 1017.7 |
| 20260504043035 | 51 | 0.0 | 0.0 | 0.00 | 0.00 | 0.00 | 87 | 1017.7 | |
| 20260504042052 | 51 | 0.0 | 2.0 | 0.00 | 0.00 | 0.00 | 86 | 1017.8 | |
| 20260504041040 | 51 | 258 | 1.0 | 2.0 | 0.00 | 0.00 | 0.00 | 87 | 1017.9 |
| 20260504040035 | 51 | 258 | 0.0 | 2.0 | 0.00 | 0.00 | 0.00 | 87 | 1017.9 |
| 20260504035036 | 51 | 0.0 | 0.0 | 0.00 | 0.00 | 0.00 | 87 | 1017.9 | |
| 20260504034029 | 52 | 0.0 | 0.0 | 0.00 | 0.00 | 0.00 | 87 | 1017.9 | |
| 20260504033032 | 52 | 0.0 | 0.0 | 0.00 | 0.00 | 0.00 | 86 | 1018.1 | |
| 20260504032033 | 53 | 0.0 | 0.0 | 0.00 | 0.00 | 0.00 | 84 | 1018.1 | |
| 20260504031033 | 53 | 0.0 | 0.0 | 0.00 | 0.00 | 0.00 | 84 | 1018.2 | |
| 20260504030032 | 53 | 0.0 | 0.0 | 0.00 | 0.00 | 0.00 | 83 | 1018.2 | |
| 20260504025039 | 53 | 0.0 | 0.0 | 0.00 | 0.00 | 0.00 | 83 | 1018.0 | |
| 20260504024029 | 54 | 0.0 | 0.0 | 0.00 | 0.00 | 0.00 | 82 | 1018.1 | |
| 20260504023032 | 54 | 0.0 | 0.0 | 0.00 | 0.00 | 0.00 | 80 | 1018.1 | |
| 20260504022030 | 55 | 0.0 | 0.0 | 0.00 | 0.00 | 0.00 | 81 | 1018.0 | |
| 20260504021113 | 55 | 0.0 | 0.0 | 0.00 | 0.00 | 0.00 | 79 | 1017.8 | |
| 20260504020037 | 55 | 0.0 | 0.0 | 0.00 | 0.00 | 0.00 | 78 | 1017.6 | |
| 20260504015031 | 56 | 0.0 | 0.0 | 0.00 | 0.00 | 0.00 | 78 | 1017.5 | |
| 20260504014037 | 57 | 0.0 | 0.0 | 0.00 | 0.00 | 0.00 | 78 | 1017.4 | |
| 20260504013027 | 57 | 0.0 | 0.0 | 0.00 | 0.00 | 0.00 | 75 | 1017.4 | |
| 20260504012034 | 58 | 0.0 | 0.0 | 0.00 | 0.00 | 0.00 | 73 | 1017.3 | |
| 20260504011037 | 59 | 0.0 | 0.0 | 0.00 | 0.00 | 0.00 | 69 | 1017.1 | |
| 20260504010045 | 60 | 0.0 | 0.0 | 0.00 | 0.00 | 0.00 | 67 | 1017.0 | |
| 20260504005042 | 62 | 0.0 | 0.0 | 0.00 | 0.00 | 0.00 | 64 | 1017.0 | |
| 20260504004037 | 64 | 0.0 | 0.0 | 0.00 | 0.00 | 0.00 | 60 | 1016.8 | |
| 20260504003040 | 66 | 0.0 | 0.0 | 0.00 | 0.00 | 0.00 | 54 | 1016.9 | |
| 20260504002055 | 69 | 0.0 | 1.0 | 0.00 | 0.00 | 0.00 | 47 | 1016.9 | |
| 20260504001043 | 71 | 258 | 0.0 | 2.0 | 0.00 | 0.00 | 0.00 | 40 | 1016.9 |
| 20260504000047 | 73 | 258 | 0.0 | 3.0 | 0.00 | 0.00 | 0.00 | 42 | 1016.9 |
| 20260503235043 | 73 | 258 | 1.0 | 4.0 | 0.00 | 0.00 | 0.00 | 35 | 1016.8 |
| 20260503234123 | 73 | 274 | 2.0 | 5.0 | 0.00 | 0.00 | 0.00 | 31 | 1016.9 |
| 20260503233058 | 73 | 255 | 2.0 | 7.0 | 0.00 | 0.00 | 0.00 | 32 | 1017.1 |
| 20260503232040 | 73 | 253 | 4.0 | 8.0 | 0.00 | 0.00 | 0.00 | 30 | 1017.0 |
| 20260503231058 | 74 | 284 | 4.0 | 7.0 | 0.00 | 0.00 | 0.00 | 30 | 1017.1 |
| 20260503230111 | 75 | 284 | 3.0 | 9.0 | 0.00 | 0.00 | 0.00 | 32 | 1017.2 |
| 20260503225042 | 75 | 298 | 3.0 | 9.0 | 0.00 | 0.00 | 0.00 | 31 | 1017.2 |
| 20260503224101 | 74 | 284 | 3.0 | 9.0 | 0.00 | 0.00 | 0.00 | 31 | 1017.3 |
| 20260503223038 | 75 | 260 | 1.0 | 8.0 | 0.00 | 0.00 | 0.00 | 29 | 1017.3 |
| 20260503222040 | 75 | 276 | 4.0 | 8.0 | 0.00 | 0.00 | 0.00 | 33 | 1017.3 |
| 20260503221043 | 75 | 304 | 2.0 | 7.0 | 0.00 | 0.00 | 0.00 | 32 | 1017.4 |
| 20260503220104 | 75 | 317 | 4.0 | 8.0 | 0.00 | 0.00 | 0.00 | 32 | 1017.4 |
| 20260503215043 | 74 | 282 | 2.0 | 9.0 | 0.00 | 0.00 | 0.00 | 33 | 1017.5 |
| 20260503214036 | 74 | 279 | 5.0 | 10.0 | 0.00 | 0.00 | 0.00 | 33 | 1017.6 |
| 20260503213034 | 75 | 264 | 5.0 | 9.0 | 0.00 | 0.00 | 0.00 | 33 | 1017.6 |
| 20260503212036 | 75 | 254 | 4.0 | 10.0 | 0.00 | 0.00 | 0.00 | 32 | 1017.8 |
| 20260503211038 | 75 | 319 | 5.0 | 10.0 | 0.00 | 0.00 | 0.00 | 32 | 1017.8 |
| 20260503210035 | 74 | 334 | 3.0 | 10.0 | 0.00 | 0.00 | 0.00 | 33 | 1018.0 |
| 20260503205034 | 74 | 302 | 5.0 | 11.0 | 0.00 | 0.00 | 0.00 | 33 | 1018.3 |
| 20260503204041 | 74 | 260 | 4.0 | 12.0 | 0.00 | 0.00 | 0.00 | 32 | 1018.5 |
| 20260503203034 | 74 | 174 | 3.0 | 7.0 | 0.00 | 0.00 | 0.00 | 33 | 1018.7 |
| 20260503202101 | 74 | 271 | 4.0 | 7.0 | 0.00 | 0.00 | 0.00 | 33 | 1018.9 |
| 20260503201045 | 73 | 229 | 2.0 | 8.0 | 0.00 | 0.00 | 0.00 | 35 | 1019.1 |
| 20260503200038 | 73 | 250 | 4.0 | 11.0 | 0.00 | 0.00 | 0.00 | 37 | 1019.4 |
| 20260503195112 | 73 | 270 | 4.0 | 12.0 | 0.00 | 0.00 | 0.00 | 36 | 1019.6 |
| 20260503194039 | 72 | 152 | 2.0 | 11.0 | 0.00 | 0.00 | 0.00 | 34 | 1019.8 |
| 20260503193036 | 73 | 278 | 5.0 | 11.0 | 0.00 | 0.00 | 0.00 | 36 | 1020.0 |
| 20260503192037 | 73 | 233 | 3.0 | 10.0 | 0.00 | 0.00 | 0.00 | 39 | 1020.1 |
| 20260503191040 | 72 | 292 | 1.0 | 7.0 | 0.00 | 0.00 | 0.00 | 36 | 1020.3 |
| 20260503190037 | 72 | 267 | 3.0 | 10.0 | 0.00 | 0.00 | 0.00 | 37 | 1020.5 |
| 20260503185046 | 71 | 289 | 3.0 | 9.0 | 0.00 | 0.00 | 0.00 | 36 | 1020.7 |
| 20260503184056 | 71 | 294 | 3.0 | 9.0 | 0.00 | 0.00 | 0.00 | 37 | 1020.8 |
| 20260503183057 | 71 | 215 | 2.0 | 9.0 | 0.00 | 0.00 | 0.00 | 37 | 1020.8 |
| 20260503182101 | 71 | 247 | 5.0 | 9.0 | 0.00 | 0.00 | 0.00 | 37 | 1021.0 |
| 20260503181035 | 70 | 291 | 3.0 | 6.0 | 0.00 | 0.00 | 0.00 | 37 | 1021.1 |
| 20260503180032 | 69 | 131 | 3.0 | 8.0 | 0.00 | 0.00 | 0.00 | 37 | 1021.3 |
| 20260503175034 | 70 | 164 | 3.0 | 8.0 | 0.00 | 0.00 | 0.00 | 38 | 1021.4 |
| 20260503174055 | 70 | 308 | 1.0 | 8.0 | 0.00 | 0.00 | 0.00 | 40 | 1021.6 |
| 20260503173040 | 69 | 320 | 3.0 | 8.0 | 0.00 | 0.00 | 0.00 | 39 | 1021.8 |
| 20260503172042 | 69 | 269 | 3.0 | 8.0 | 0.00 | 0.00 | 0.00 | 40 | 1022.0 |
| 20260503171035 | 68 | 232 | 3.0 | 8.0 | 0.00 | 0.00 | 0.00 | 40 | 1022.2 |